sat.trackr.live / text

‹ back to catalog

STARLINK-4422

NORAD 53639 · 2022-104BD

PAYLOAD ACTIVE UNKNOWN

§ Identity

Operator
Country
US
Launch date
2022-08-28
Launch site
AFETR
Launch vehicle
Mass (kg)
RCS (m²)

Purposes: comms

External: N2YO · Heavens-Above · Gunter

§ Orbital elements

Epoch: 2026-09-20T22:00:03.000096Z

Period
93.81 min
Inclination
53.1860°
Eccentricity
0.0001466
Mean motion
15.35051865 rev/d
Perigee alt
459.8 km
Apogee alt
461.8 km
Semi-major
6,838.9 km
B*
3.0572e-2
RAAN
34.7711°
Arg perigee
61.2202°
Mean anomaly
333.3879°
Rev number
575

§ Raw data

STARLINK-44221 53639U 22104BD  26263.91670139  .01159874  00000+0  30572-1 0  99922 53639  53.1860  34.7711 0001466  61.2202 333.3879 15.35051865  5756

JSON: /api/v1/satellites/53639 · /tle

For live sub-satellite position, see the globe view (requires WebGL).

§ Visibility from observer

Set your observer location to see the next 7 days of passes ≥ 10°. The values pass through the URL so the page stays shareable.

No JS? Fill the form by hand. The geolocation button needs JavaScript.